Christchurch, New Zealand

10:40 AM NZDT on September 25, 2016 (GMT +1300)
Christchurch

Weather History for 93780 - December, 2013

Change the Weather History Date:

Monday, December 16, 2013

  Actual Average Record
Temperature  
Mean Temperature 64 °F -  
Max Temperature 71 °F - - ()
Min Temperature 57 °F - - ()
Degree Days  
Heating Degree Days 1    
Growing Degree Days 14 (Base 50)    
Moisture  
Dew Point 57 °F    
Average Humidity 80    
Maximum Humidity 100    
Minimum Humidity 52    
Precipitation  
Precipitation 0.00 in - - ()
Sea Level Pressure  
Sea Level Pressure 29.79 in    
Wind  
Wind Speed 7 mph ()    
Max Wind Speed 16 mph    
Max Gust Speed -    
Visibility 6.2 miles    
Events Rain    
T = Trace of Precipitation, MM = Missing Value Source: Averaged Metar Reports

Daily Weather History Graph

Daily Weather History Graph

Search for Another Location

Airport or City:

Trip Planner

Search our weather history database for the weather conditions in past years. The results will help you decide how hot, cold, wet, or windy it might be!

Date:

Astronomy

Dec. 16, 2013 Rise Set
Actual Time 5:43 AM NZDT 9:07 PM NZDT
Civil Twilight 5:07 AM NZDT 9:43 PM NZDT
Nautical Twilight 4:20 AM NZDT 10:30 PM NZDT
Astronomical Twilight 3:22 AM NZDT 11:28 PM NZDT
Moon 7:52 PM NZDT (12/16) 4:49 AM NZDT (12/16)
Length of Visible Light 16h 35m
Length of Day
15h 24m
Waxing Gibbous, 98% of the Moon is Illuminated
Dec 16
Waxing Gibbous
Dec 17
Full
Dec 26
Last Quarter
Jan 2
New
Jan 8
First Quarter

Hourly Weather History & Observations

Time (NZDT) Temp. Dew Point Humidity Pressure Visibility Wind Dir Wind Speed Gust Speed Precip Events Conditions
12:00 AM 60.8 °F 57.2 °F 88% 29.86 in 6.2 mi ENE 8.1 mph - N/A   Overcast
12:30 AM 60.8 °F 57.2 °F 88% 29.86 in 6.2 mi ENE 10.4 mph - N/A   Overcast
1:00 AM 60.8 °F 57.2 °F 88% 29.83 in 6.2 mi ENE 9.2 mph - N/A   Overcast
1:30 AM 60.8 °F 57.2 °F 88% 29.83 in 6.2 mi ENE 10.4 mph - N/A   Overcast
2:00 AM 60.8 °F 57.2 °F 88% 29.83 in 6.2 mi ENE 9.2 mph - N/A   Mostly Cloudy
2:30 AM 60.8 °F 57.2 °F 88% 29.80 in 6.2 mi NE 8.1 mph - N/A   Mostly Cloudy
3:00 AM 59.0 °F 57.2 °F 94% 29.80 in 6.2 mi NE 4.6 mph - N/A   Scattered Clouds
3:30 AM 59.0 °F 57.2 °F 94% 29.80 in 6.2 mi East 5.8 mph - N/A   Mostly Cloudy
4:00 AM 59.0 °F 57.2 °F 94% 29.77 in 6.2 mi ENE 6.9 mph - N/A   Partly Cloudy
4:30 AM 59.0 °F 59.0 °F 100% 29.77 in 6.2 mi ENE 8.1 mph - N/A   Partly Cloudy
5:00 AM 59.0 °F 57.2 °F 94% 29.77 in 6.2 mi NE 9.2 mph - N/A   Unknown
5:30 AM 59.0 °F 59.0 °F 100% 29.77 in 6.2 mi ENE 4.6 mph - N/A   Unknown
6:00 AM 59.0 °F 57.2 °F 94% 29.77 in 6.2 mi East 3.5 mph - N/A   Unknown
6:30 AM 59.0 °F 57.2 °F 94% 29.77 in 6.2 mi NE 1.2 mph - N/A   Unknown
7:00 AM 59.0 °F 59.0 °F 100% 29.77 in 6.2 mi NNW 2.3 mph - N/A   Unknown
7:30 AM 60.8 °F 59.0 °F 94% 29.77 in 6.2 mi North 3.5 mph - N/A   Unknown
8:00 AM 60.8 °F 57.2 °F 88% 29.77 in 6.2 mi NW 2.3 mph - N/A   Unknown
8:30 AM 60.8 °F 57.2 °F 88% 29.77 in 6.2 mi NE 4.6 mph - N/A   Unknown
9:00 AM 64.4 °F 55.4 °F 73% 29.77 in 6.2 mi NW 3.5 mph - N/A   Unknown
9:30 AM 64.4 °F 51.8 °F 64% 29.77 in 6.2 mi WNW 3.5 mph - N/A   Unknown
10:00 AM 66.2 °F 51.8 °F 60% 29.80 in 6.2 mi Calm Calm - N/A   Unknown
10:30 AM 68.0 °F 50.0 °F 52% 29.80 in 6.2 mi West 2.3 mph - N/A   Partly Cloudy
11:00 AM 68.0 °F 50.0 °F 52% 29.80 in 6.2 mi SW 9.2 mph - N/A   Unknown
11:30 AM 66.2 °F 57.2 °F 73% 29.80 in 6.2 mi SSW 11.5 mph - N/A   Unknown
12:00 PM 68.0 °F 59.0 °F 73% 29.80 in 6.2 mi SSW 11.5 mph - N/A   Unknown
12:30 PM 68.0 °F 59.0 °F 73% 29.80 in 6.2 mi SSW 11.5 mph - N/A   Unknown
1:00 PM 68.0 °F 57.2 °F 68% 29.80 in 6.2 mi SSW 11.5 mph - N/A   Unknown
1:30 PM 68.0 °F 57.2 °F 68% 29.80 in 6.2 mi SSW 9.2 mph - N/A   Unknown
2:00 PM 68.0 °F 57.2 °F 68% 29.80 in 6.2 mi SSW 9.2 mph - N/A   Unknown
2:30 PM 68.0 °F 57.2 °F 68% 29.80 in 6.2 mi South 5.8 mph - N/A   Unknown
3:00 PM 69.8 °F 57.2 °F 64% 29.77 in 6.2 mi SSW 4.6 mph - N/A   Unknown
3:30 PM 69.8 °F 55.4 °F 60% 29.77 in 6.2 mi SSW 4.6 mph - N/A   Unknown
4:00 PM 69.8 °F 53.6 °F 56% 29.77 in 6.2 mi South 3.5 mph - N/A   Unknown
4:30 PM 71.6 °F 53.6 °F 53% 29.77 in 6.2 mi ENE 4.6 mph - N/A   Unknown
5:00 PM 69.8 °F 59.0 °F 68% 29.77 in 6.2 mi ENE 13.8 mph - N/A   Unknown
5:30 PM 68.0 °F 57.2 °F 68% 29.74 in 6.2 mi East 13.8 mph - N/A   Unknown
6:00 PM 68.0 °F 57.2 °F 68% 29.74 in 6.2 mi East 15.0 mph - N/A   Unknown
6:30 PM 68.0 °F 57.2 °F 68% 29.74 in 6.2 mi ENE 13.8 mph - N/A   Unknown
7:00 PM 66.2 °F 59.0 °F 78% 29.74 in 6.2 mi ENE 15.0 mph - N/A   Unknown
7:30 PM 66.2 °F 57.2 °F 73% 29.74 in 6.2 mi ENE 16.1 mph - N/A   Unknown
8:00 PM 62.6 °F 57.2 °F 82% 29.77 in 6.2 mi ENE 13.8 mph - N/A   Partly Cloudy
8:30 PM 60.8 °F 57.2 °F 88% 29.77 in 6.2 mi ENE 12.7 mph - N/A   Mostly Cloudy
9:00 PM 60.8 °F 57.2 °F 88% 29.80 in 6.2 mi ESE 4.6 mph - N/A   Mostly Cloudy
9:30 PM 60.8 °F 59.0 °F 94% 29.80 in 6.2 mi SE 8.1 mph - N/A Rain Light Rain
10:00 PM 60.8 °F 57.2 °F 88% 29.80 in 6.2 mi ENE 11.5 mph - N/A   Scattered Clouds
10:30 PM 60.8 °F 57.2 °F 88% 29.80 in 6.2 mi ENE 6.9 mph - N/A   Unknown
11:00 PM 57.2 °F 55.4 °F 94% 29.80 in 6.2 mi NNE 6.9 mph - N/A   Unknown
11:30 PM 57.2 °F 55.4 °F 94% 29.80 in 6.2 mi NNE 3.5 mph - N/A   Unknown